VOI0802 SKBO-MPTO

Flight info

Callsign VOI0802
Flight time 1h 11m
Altitude 38000
Route VASIL4U VASIL UL423 PULOX DCT SIGUN ISOKO2C
Aircraft A320/M-SDE3FGHIRWY/LB1

Departure

Time 2026-04-30 20:36
Airport El Dorado International Airport (SKBO)

Arrival

Time 2026-04-30 21:47
Airport Tocumen International Airport (MPTO)
Time Latitude Longitude Altitude Speed Heading
2026-04-30 20:16 4.69875 -74.14626 8373 ft 0 kts 123°
2026-04-30 20:25 4.69883 -74.14638 8371 ft 4 kts 123°
2026-04-30 20:26 4.69917 -74.14678 8373 ft 4 kts 161°
2026-04-30 20:26 4.69945 -74.14674 8373 ft 0 kts 217°
2026-04-30 20:28 4.69936 -74.14681 8372 ft 2 kts 217°
2026-04-30 20:29 4.69847 -74.14747 8373 ft 11 kts 217°
2026-04-30 20:30 4.69828 -74.14938 8371 ft 13 kts 307°
2026-04-30 20:30 4.70013 -74.15187 8373 ft 16 kts 308°
2026-04-30 20:31 4.70224 -74.15464 8373 ft 15 kts 306°
2026-04-30 20:32 4.70435 -74.15743 8373 ft 18 kts 308°
2026-04-30 20:32 4.70597 -74.15958 8372 ft 20 kts 307°
2026-04-30 20:33 4.70683 -74.16075 8374 ft 21 kts 306°
2026-04-30 20:33 4.70870 -74.16322 8374 ft 23 kts 307°
2026-04-30 20:33 4.70970 -74.16453 8373 ft 24 kts 307°
2026-04-30 20:34 4.71159 -74.16702 8373 ft 21 kts 308°
2026-04-30 20:34 4.71103 -74.16867 8373 ft 16 kts 217°
2026-04-30 20:35 4.71020 -74.16856 8373 ft 1 kts 112°
2026-04-30 20:35 4.70953 -74.16773 8371 ft 45 kts 129°
2026-04-30 20:35 4.70039 -74.15585 8371 ft 161 kts 127°
2026-04-30 20:36 4.69556 -74.14941 8420 ft 185 kts 129°
2026-04-30 20:36 4.68461 -74.13562 9433 ft 191 kts 136°
2026-04-30 20:36 4.66352 -74.13302 10309 ft 204 kts 209°
2026-04-30 20:37 4.65349 -74.14385 10473 ft 226 kts 238°
2026-04-30 20:37 4.64520 -74.15814 10564 ft 252 kts 239°
2026-04-30 20:37 4.63584 -74.17407 10784 ft 273 kts 237°
2026-04-30 20:37 4.62634 -74.19004 11696 ft 262 kts 236°
2026-04-30 20:38 4.61723 -74.20588 12434 ft 263 kts 244°
2026-04-30 20:38 4.61210 -74.22401 12802 ft 283 kts 256°
2026-04-30 20:38 4.60801 -74.24421 12989 ft 307 kts 257°
2026-04-30 20:39 4.61088 -74.28908 13253 ft 353 kts 294°
2026-04-30 20:39 4.62268 -74.31166 13621 ft 365 kts 300°
2026-04-30 20:39 4.63604 -74.33325 14068 ft 373 kts 303°
2026-04-30 20:40 4.66484 -74.37683 15226 ft 376 kts 303°
2026-04-30 20:40 4.67930 -74.39921 15796 ft 379 kts 303°
2026-04-30 20:40 4.69317 -74.42133 16271 ft 382 kts 302°
2026-04-30 20:41 4.72099 -74.46725 17298 ft 389 kts 301°
2026-04-30 20:41 4.73514 -74.49089 17827 ft 391 kts 301°
2026-04-30 20:41 4.74919 -74.51433 18262 ft 395 kts 301°
2026-04-30 20:41 4.76325 -74.53770 18722 ft 398 kts 301°
2026-04-30 20:42 4.77761 -74.56149 19196 ft 401 kts 302°
2026-04-30 20:42 4.79231 -74.58587 19676 ft 405 kts 301°
2026-04-30 20:42 4.82167 -74.63454 20650 ft 411 kts 301°
2026-04-30 20:43 4.83654 -74.65913 21099 ft 414 kts 301°
2026-04-30 20:43 4.85154 -74.68390 21573 ft 417 kts 302°
2026-04-30 20:43 4.86661 -74.70878 22041 ft 420 kts 301°
2026-04-30 20:44 4.89714 -74.75919 22983 ft 426 kts 301°
2026-04-30 20:44 4.91238 -74.78435 23468 ft 429 kts 301°
2026-04-30 20:44 4.94340 -74.83580 24198 ft 433 kts 301°
2026-04-30 20:45 4.97464 -74.88765 24984 ft 435 kts 301°
2026-04-30 20:45 4.99033 -74.91366 25370 ft 436 kts 301°
2026-04-30 20:45 5.00607 -74.93976 25764 ft 437 kts 301°
2026-04-30 20:46 5.05265 -75.01684 26977 ft 441 kts 300°
2026-04-30 20:46 5.06876 -75.04353 27348 ft 442 kts 300°
2026-04-30 20:47 5.10051 -75.09611 28181 ft 443 kts 300°
2026-04-30 20:47 5.11648 -75.12258 28566 ft 444 kts 300°
2026-04-30 20:48 5.14834 -75.17539 29323 ft 447 kts 301°
2026-04-30 20:48 5.16686 -75.20039 29705 ft 450 kts 309°
2026-04-30 20:48 5.18754 -75.22375 30140 ft 451 kts 310°
2026-04-30 20:48 5.20842 -75.24728 30463 ft 452 kts 310°
2026-04-30 20:49 5.22937 -75.27088 30771 ft 453 kts 310°
2026-04-30 20:49 5.25036 -75.29455 31044 ft 455 kts 310°
2026-04-30 20:49 5.27144 -75.31838 31339 ft 457 kts 309°
2026-04-30 20:50 5.31352 -75.36606 32054 ft 455 kts 309°
2026-04-30 20:50 5.33444 -75.38975 32483 ft 453 kts 309°
2026-04-30 20:50 5.35530 -75.41333 32916 ft 451 kts 309°
2026-04-30 20:50 5.37611 -75.43684 33388 ft 448 kts 309°
2026-04-30 20:51 5.39674 -75.46015 33894 ft 445 kts 308°
2026-04-30 20:51 5.43760 -75.50639 34762 ft 440 kts 308°
2026-04-30 20:51 5.45787 -75.52931 35166 ft 438 kts 308°
2026-04-30 20:52 5.47805 -75.55214 35542 ft 436 kts 308°
2026-04-30 20:52 5.49811 -75.57486 35926 ft 434 kts 308°
2026-04-30 20:52 5.53800 -75.62013 36628 ft 431 kts 308°
2026-04-30 20:53 5.55783 -75.64258 36877 ft 429 kts 308°
2026-04-30 20:53 5.59732 -75.68723 36925 ft 426 kts 308°
2026-04-30 20:54 5.65644 -75.75429 36906 ft 425 kts 308°
2026-04-30 20:55 5.71532 -75.82100 36912 ft 426 kts 308°
2026-04-30 20:55 5.75373 -75.86634 36913 ft 426 kts 306°
2026-04-30 20:56 5.81008 -75.93511 36915 ft 426 kts 306°
2026-04-30 20:57 5.86702 -76.00366 36917 ft 426 kts 307°
2026-04-30 20:57 5.90510 -76.04931 36915 ft 426 kts 307°
2026-04-30 20:58 5.96171 -76.11735 36911 ft 421 kts 306°
2026-04-30 20:58 5.99920 -76.16246 36909 ft 422 kts 306°
2026-04-30 20:59 6.05563 -76.23048 36917 ft 423 kts 306°
2026-04-30 21:00 6.13111 -76.32119 36915 ft 423 kts 306°
2026-04-30 21:01 6.18756 -76.38927 36887 ft 423 kts 306°
2026-04-30 21:02 6.24408 -76.45738 36882 ft 423 kts 306°
2026-04-30 21:02 6.28180 -76.50274 36882 ft 423 kts 306°
2026-04-30 21:03 6.31960 -76.54822 36848 ft 424 kts 306°
2026-04-30 21:03 6.35736 -76.59382 36848 ft 424 kts 306°
2026-04-30 21:04 6.39515 -76.63943 36844 ft 424 kts 306°
2026-04-30 21:04 6.45181 -76.70781 36819 ft 424 kts 306°
2026-04-30 21:05 6.48960 -76.75340 36819 ft 425 kts 306°
2026-04-30 21:05 6.52740 -76.79905 36799 ft 425 kts 306°
2026-04-30 21:06 6.56520 -76.84467 36800 ft 425 kts 306°
2026-04-30 21:06 6.60299 -76.89033 36799 ft 425 kts 307°
2026-04-30 21:07 6.64109 -76.93634 36798 ft 425 kts 307°
2026-04-30 21:07 6.67893 -76.98203 36787 ft 425 kts 307°
2026-04-30 21:08 6.71673 -77.02771 36782 ft 425 kts 307°
2026-04-30 21:08 6.75456 -77.07338 36782 ft 425 kts 307°
2026-04-30 21:09 6.79234 -77.11907 36783 ft 425 kts 307°
2026-04-30 21:09 6.83013 -77.16481 36780 ft 425 kts 307°
2026-04-30 21:10 6.86789 -77.21057 36780 ft 425 kts 307°
2026-04-30 21:10 6.90572 -77.25631 36784 ft 425 kts 307°
2026-04-30 21:11 6.94348 -77.30202 36785 ft 425 kts 307°
2026-04-30 21:11 6.98124 -77.34777 36787 ft 425 kts 307°
2026-04-30 21:12 7.01901 -77.39352 36797 ft 425 kts 307°
2026-04-30 21:12 7.05675 -77.43927 36793 ft 425 kts 307°
2026-04-30 21:13 7.08834 -77.47756 36795 ft 425 kts 307°
2026-04-30 21:13 7.12615 -77.52333 36798 ft 425 kts 307°
2026-04-30 21:14 7.16393 -77.56905 36800 ft 425 kts 307°
2026-04-30 21:14 7.20169 -77.61485 36798 ft 425 kts 307°
2026-04-30 21:15 7.23941 -77.66067 36800 ft 425 kts 307°
2026-04-30 21:15 7.27719 -77.70656 36800 ft 425 kts 307°
2026-04-30 21:16 7.31491 -77.75251 36798 ft 425 kts 307°
2026-04-30 21:16 7.35262 -77.79829 36800 ft 425 kts 307°
2026-04-30 21:17 7.39046 -77.84418 36798 ft 426 kts 307°
2026-04-30 21:17 7.42905 -77.88948 36812 ft 426 kts 308°
2026-04-30 21:18 7.46813 -77.93421 36804 ft 425 kts 308°
2026-04-30 21:18 7.50710 -77.97903 36801 ft 425 kts 308°
2026-04-30 21:19 7.54590 -78.02407 36799 ft 425 kts 308°
2026-04-30 21:19 7.58467 -78.06917 36805 ft 426 kts 308°
2026-04-30 21:20 7.62370 -78.11457 36794 ft 426 kts 308°
2026-04-30 21:20 7.66251 -78.15961 36791 ft 426 kts 308°
2026-04-30 21:21 7.70135 -78.20474 36790 ft 426 kts 308°
2026-04-30 21:22 7.75959 -78.27241 36784 ft 426 kts 308°
2026-04-30 21:23 7.83729 -78.36277 36788 ft 427 kts 308°
2026-04-30 21:23 7.89599 -78.43098 36792 ft 427 kts 308°
2026-04-30 21:24 7.93513 -78.47659 36197 ft 433 kts 308°
2026-04-30 21:24 7.95483 -78.49949 35641 ft 432 kts 307°
2026-04-30 21:24 7.97449 -78.52235 35096 ft 431 kts 307°
2026-04-30 21:25 8.01365 -78.56788 34042 ft 428 kts 307°
2026-04-30 21:25 8.03313 -78.59057 33492 ft 427 kts 307°
2026-04-30 21:25 8.05254 -78.61326 32897 ft 426 kts 307°
2026-04-30 21:26 8.09119 -78.65832 31776 ft 423 kts 307°
2026-04-30 21:26 8.11048 -78.68076 31235 ft 422 kts 307°
2026-04-30 21:27 8.14877 -78.72529 30198 ft 418 kts 307°
2026-04-30 21:27 8.16777 -78.74747 29685 ft 417 kts 307°
2026-04-30 21:27 8.18667 -78.76954 29102 ft 415 kts 307°
2026-04-30 21:28 8.22433 -78.81346 27972 ft 412 kts 308°
2026-04-30 21:28 8.24407 -78.83445 27422 ft 413 kts 314°
2026-04-30 21:28 8.28584 -78.87407 26359 ft 411 kts 314°
2026-04-30 21:29 8.30673 -78.89377 25846 ft 411 kts 315°
2026-04-30 21:29 8.36916 -78.95277 24342 ft 409 kts 315°
2026-04-30 21:30 8.41063 -78.99209 23384 ft 409 kts 316°
2026-04-30 21:31 8.47281 -79.05093 21718 ft 408 kts 316°
2026-04-30 21:31 8.51409 -79.09011 20647 ft 406 kts 315°
2026-04-30 21:32 8.55498 -79.12884 19611 ft 393 kts 316°
2026-04-30 21:32 8.57455 -79.14736 19090 ft 378 kts 316°
2026-04-30 21:32 8.59343 -79.16527 18525 ft 367 kts 316°
2026-04-30 21:32 8.61177 -79.18268 17968 ft 357 kts 316°
2026-04-30 21:33 8.62967 -79.19969 17348 ft 351 kts 316°
2026-04-30 21:33 8.66523 -79.23353 16113 ft 349 kts 316°
2026-04-30 21:33 8.68235 -79.25130 15500 ft 345 kts 308°
2026-04-30 21:34 8.69743 -79.26988 14914 ft 341 kts 309°
2026-04-30 21:34 8.72727 -79.30663 13766 ft 335 kts 309°
2026-04-30 21:34 8.74203 -79.32476 13159 ft 333 kts 309°
2026-04-30 21:35 8.75664 -79.34274 12533 ft 329 kts 309°
2026-04-30 21:35 8.77107 -79.36053 11879 ft 324 kts 309°
2026-04-30 21:35 8.78528 -79.37802 11230 ft 320 kts 309°
2026-04-30 21:35 8.79935 -79.39534 10594 ft 317 kts 309°
2026-04-30 21:36 8.81379 -79.41189 9968 ft 312 kts 319°
2026-04-30 21:36 8.83090 -79.42504 9346 ft 307 kts 324°
2026-04-30 21:37 8.88452 -79.45887 7111 ft 302 kts 345°
2026-04-30 21:37 8.90515 -79.46195 6391 ft 299 kts
2026-04-30 21:37 8.92550 -79.45924 5845 ft 290 kts 16°
2026-04-30 21:37 8.94373 -79.45173 5409 ft 278 kts 29°
2026-04-30 21:38 8.96047 -79.44221 4974 ft 269 kts 29°
2026-04-30 21:38 8.97674 -79.43293 4590 ft 270 kts 31°
2026-04-30 21:38 8.99102 -79.42066 4191 ft 275 kts 52°
2026-04-30 21:38 8.99903 -79.40308 3805 ft 279 kts 78°
2026-04-30 21:39 8.99814 -79.38372 3573 ft 276 kts 106°
2026-04-30 21:39 8.98887 -79.36701 3356 ft 274 kts 132°
2026-04-30 21:39 8.97339 -79.35637 3190 ft 268 kts 159°
2026-04-30 21:39 8.95530 -79.35363 3081 ft 265 kts 185°
2026-04-30 21:40 8.93788 -79.35877 2997 ft 259 kts 206°
2026-04-30 21:40 8.92193 -79.36672 2999 ft 245 kts 207°
2026-04-30 21:40 8.90749 -79.37428 3000 ft 230 kts 208°
2026-04-30 21:40 8.89363 -79.38166 3003 ft 223 kts 208°
2026-04-30 21:41 8.88072 -79.39016 2997 ft 218 kts 228°
2026-04-30 21:41 8.87278 -79.40261 3001 ft 207 kts 251°
2026-04-30 21:41 8.86969 -79.41676 3004 ft 202 kts 270°
2026-04-30 21:41 8.87115 -79.43068 3004 ft 197 kts 288°
2026-04-30 21:42 8.87677 -79.44316 3003 ft 196 kts 306°
2026-04-30 21:42 8.88575 -79.45290 3038 ft 180 kts 324°
2026-04-30 21:42 8.89602 -79.45888 3008 ft 162 kts 339°
2026-04-30 21:42 8.90621 -79.46147 3009 ft 144 kts 353°
2026-04-30 21:43 8.91615 -79.46149 3008 ft 143 kts
2026-04-30 21:43 8.92267 -79.46019 3009 ft 144 kts 15°
2026-04-30 21:43 8.93516 -79.45485 2852 ft 148 kts 22°
2026-04-30 21:43 8.94444 -79.45049 2454 ft 147 kts 25°
2026-04-30 21:44 8.95341 -79.44583 2141 ft 144 kts 26°
2026-04-30 21:44 8.95929 -79.44263 1983 ft 146 kts 26°
2026-04-30 21:44 8.96817 -79.43770 1765 ft 146 kts 27°
2026-04-30 21:44 8.97719 -79.43264 1579 ft 147 kts 27°
2026-04-30 21:45 8.98606 -79.42761 1402 ft 145 kts 26°
2026-04-30 21:45 8.99468 -79.42272 1187 ft 143 kts 27°
2026-04-30 21:45 9.00336 -79.41779 1011 ft 142 kts 28°
2026-04-30 21:45 9.01191 -79.41293 827 ft 141 kts 28°
2026-04-30 21:46 9.02058 -79.40800 665 ft 141 kts 28°
2026-04-30 21:46 9.02917 -79.40313 463 ft 143 kts 29°
2026-04-30 21:46 9.03779 -79.39825 308 ft 143 kts 30°
2026-04-30 21:46 9.04669 -79.39323 123 ft 142 kts 30°
2026-04-30 21:47 9.05514 -79.38845 35 ft 129 kts 30°
2026-04-30 21:47 9.06144 -79.38476 31 ft 67 kts 30°
2026-04-30 21:47 9.06404 -79.38375 29 ft 25 kts 359°
2026-04-30 21:47 9.06543 -79.38376 30 ft 19 kts
2026-04-30 21:48 9.06651 -79.38412 30 ft 15 kts 299°
2026-04-30 21:48 9.06624 -79.38492 30 ft 14 kts 214°
2026-04-30 21:48 9.06615 -79.38561 30 ft 8 kts 299°
2026-04-30 21:48 9.06642 -79.38605 30 ft 0 kts 300°